RH
58 65 77 80 76 74 74 72 72 67 64 68 73 75 70 69 73 74 71 67 59 54 49 45 44 42 39
65 77 89 91 84 76 75 75 76 71 71 76 80 79 75 77 74 74 69 63 57 50 48 46 40 31 25
77 91 95 91 85 81 80 80 75 74 78 84 85 77 77 76 78 72 67 59 54 49 45 39 31 25 24
94 97 92 92 88 87 77 72 75 84 85 87 86 78 73 82 76 68 60 55 51 45 39 34 30 26 27
98 96 95 86 81 75 70 76 87 83 88 90 82 77 81 78 69 60 54 49 47 40 35 33 30 29 29
93 91 86 80 69 68 74 81 82 86 87 82 80 86 77 72 64 55 51 47 41 36 34 31 30 30 30
88 78 73 73 71 74 81 88 86 84 84 87 88 80 72 65 58 55 49 42 38 36 34 32 33 33 32
74 71 69 77 80 85 87 88 81 86 86 86 84 68 62 62 56 50 44 41 38 35 34 35 35 34 31
72 70 77 86 83 77 77 80 85 83 84 80 71 68 62 57 51 46 42 41 37 37 38 38 36 32 28
81 80 86 87 78 75 77 81 84 84 76 67 61 64 60 56 49 46 43 40 39 41 40 37 34 30 27
92 89 88 81 77 77 80 85 84 74 66 61 60 60 59 55 50 46 43 41 43 43 40 36 32 30 27
88 85 82 81 81 82 85 79 71 68 64 64 64 60 57 53 49 45 45 47 45 42 39 35 32 31 29
88 89 89 89 87 82 77 73 69 66 67 67 62 59 57 52 50 49 51 48 43 42 38 34 32 31 27
98 97 94 93 87 80 74 73 69 66 66 63 61 59 56 54 53 52 51 47 44 42 38 34 33 31 28
98 96 94 89 86 81 78 76 72 70 68 66 62 59 58 57 54 51 48 46 45 41 38 33 30 30 28
95 96 95 90 88 82 79 76 72 71 71 67 62 62 59 57 53 49 48 47 43 41 38 33 27 28 29
95 97 94 92 87 84 81 78 77 74 68 69 63 63 60 54 50 52 50 47 44 41 35 32 28 27 29